SWA3118 KSAT-KPHX

Flight info

Callsign SWA3118
Flight time N/A
Altitude 36000
Route ALISS7 ALISS FST ELP J50 ALIBY DRRVR PINNG1
Aircraft B738/M-SADE2E3GIJ4RWZ/LB1D1

Departure

Time 2026-04-26 15:52
Airport San Antonio International Airport (KSAT)

Arrival

Time N/A
Airport Phoenix Sky Harbor International Airport (KPHX)
Time Latitude Longitude Altitude Speed Heading
2026-04-26 15:36 29.52701 -98.46987 797 ft 0 kts 310°
2026-04-26 15:45 29.52699 -98.46985 797 ft 0 kts 311°
2026-04-26 15:45 29.52689 -98.46972 797 ft 2 kts 312°
2026-04-26 15:46 29.52666 -98.46945 797 ft 2 kts 320°
2026-04-26 15:46 29.52652 -98.46934 797 ft 2 kts 347°
2026-04-26 15:46 29.52638 -98.46937 797 ft 1 kts 43°
2026-04-26 15:46 29.52637 -98.46938 797 ft 0 kts 42°
2026-04-26 15:48 29.52645 -98.46930 797 ft 7 kts 41°
2026-04-26 15:48 29.52719 -98.46874 797 ft 13 kts
2026-04-26 15:48 29.52837 -98.46905 797 ft 20 kts 345°
2026-04-26 15:48 29.52948 -98.47035 797 ft 28 kts 311°
2026-04-26 15:49 29.53102 -98.47234 797 ft 36 kts 313°
2026-04-26 15:49 29.53266 -98.47442 797 ft 34 kts 312°
2026-04-26 15:49 29.53419 -98.47641 797 ft 32 kts 311°
2026-04-26 15:49 29.53571 -98.47835 797 ft 33 kts 313°
2026-04-26 15:50 29.53731 -98.48043 797 ft 36 kts 314°
2026-04-26 15:50 29.53903 -98.48265 797 ft 38 kts 311°
2026-04-26 15:50 29.54068 -98.48476 797 ft 30 kts 312°
2026-04-26 15:50 29.54179 -98.48600 797 ft 20 kts 343°
2026-04-26 15:51 29.54243 -98.48522 797 ft 15 kts 103°
2026-04-26 15:51 29.54151 -98.48392 797 ft 47 kts 132°
2026-04-26 15:51 29.53737 -98.47859 797 ft 128 kts 131°
2026-04-26 15:51 29.53011 -98.46945 1072 ft 173 kts 133°
2026-04-26 15:52 29.52139 -98.45909 1958 ft 183 kts 138°
2026-04-26 15:52 29.51215 -98.44985 3008 ft 179 kts 153°
2026-04-26 15:52 29.50032 -98.44321 3618 ft 198 kts 161°
2026-04-26 15:52 29.49104 -98.44071 3753 ft 217 kts 182°
2026-04-26 15:53 29.47298 -98.45149 4215 ft 239 kts 234°
2026-04-26 15:53 29.46841 -98.47004 4839 ft 248 kts 271°
2026-04-26 15:53 29.47436 -98.48911 5176 ft 272 kts 307°
2026-04-26 15:53 29.48997 -98.50155 5914 ft 283 kts 341°
2026-04-26 15:54 29.50957 -98.50212 6883 ft 286 kts 14°
2026-04-26 15:54 29.52685 -98.49071 7713 ft 294 kts 45°
2026-04-26 15:54 29.53673 -98.47021 8558 ft 299 kts 77°
2026-04-26 15:54 29.53619 -98.44639 9403 ft 304 kts 108°
2026-04-26 15:55 29.52638 -98.42501 10307 ft 301 kts 120°
2026-04-26 15:55 29.51996 -98.40217 11080 ft 310 kts 91°
2026-04-26 15:55 29.52437 -98.37714 11184 ft 338 kts 60°
2026-04-26 15:55 29.54010 -98.35670 11498 ft 350 kts 31°
2026-04-26 15:56 29.56288 -98.34587 11657 ft 365 kts
2026-04-26 15:56 29.58852 -98.34746 11820 ft 377 kts 341°
2026-04-26 15:56 29.61167 -98.36176 12090 ft 383 kts 316°
2026-04-26 15:56 29.62808 -98.38571 12695 ft 383 kts 300°
2026-04-26 15:57 29.64127 -98.41188 13421 ft 382 kts 298°
2026-04-26 15:57 29.65559 -98.43779 14059 ft 385 kts 303°
2026-04-26 15:57 29.67151 -98.46281 14551 ft 390 kts 304°
2026-04-26 15:57 29.68225 -98.47941 14878 ft 392 kts 304°
2026-04-26 15:58 29.70416 -98.51327 15579 ft 396 kts 304°
2026-04-26 15:58 29.71901 -98.53641 16043 ft 399 kts 304°
2026-04-26 15:58 29.73552 -98.56227 16552 ft 402 kts 304°
2026-04-26 15:58 29.75206 -98.58834 17071 ft 405 kts 304°
2026-04-26 15:59 29.76873 -98.61468 17558 ft 408 kts 304°
2026-04-26 15:59 29.78550 -98.64123 18050 ft 412 kts 304°
2026-04-26 15:59 29.80237 -98.66796 18510 ft 414 kts 303°
2026-04-26 15:59 29.81930 -98.69481 19001 ft 414 kts 303°
2026-04-26 16:00 29.83626 -98.72171 19506 ft 415 kts 303°
2026-04-26 16:00 29.85324 -98.74865 19982 ft 416 kts 303°
2026-04-26 16:00 29.87028 -98.77571 20431 ft 418 kts 303°
2026-04-26 16:00 29.88719 -98.80252 20881 ft 420 kts 303°
2026-04-26 16:01 29.90512 -98.82913 21359 ft 421 kts 306°
2026-04-26 16:01 29.92371 -98.85531 21802 ft 423 kts 306°
2026-04-26 16:01 29.94254 -98.88144 22216 ft 425 kts 306°
2026-04-26 16:01 29.96143 -98.90769 22613 ft 426 kts 306°
2026-04-26 16:02 29.98033 -98.93412 23018 ft 428 kts 306°
2026-04-26 16:02 29.99923 -98.96072 23371 ft 429 kts 305°
2026-04-26 16:02 30.01814 -98.98746 23698 ft 430 kts 305°
2026-04-26 16:02 30.03062 -99.00513 23892 ft 431 kts 305°
2026-04-26 16:03 30.05608 -99.04123 24265 ft 434 kts 305°
2026-04-26 16:03 30.07516 -99.06827 24534 ft 435 kts 305°
2026-04-26 16:03 30.09388 -99.09579 24795 ft 435 kts 301°
2026-04-26 16:03 30.10933 -99.12568 25059 ft 433 kts 294°
2026-04-26 16:04 30.12155 -99.15745 25328 ft 432 kts 287°
2026-04-26 16:04 30.12994 -99.19075 25583 ft 432 kts 283°
2026-04-26 16:04 30.13750 -99.22391 25827 ft 433 kts 283°
2026-04-26 16:04 30.14514 -99.25765 26072 ft 435 kts 283°
2026-04-26 16:05 30.15282 -99.29147 26322 ft 436 kts 283°
2026-04-26 16:05 30.16059 -99.32541 26551 ft 437 kts 283°
2026-04-26 16:05 30.16841 -99.35942 26765 ft 438 kts 283°
2026-04-26 16:05 30.17627 -99.39343 27028 ft 438 kts 283°
2026-04-26 16:06 30.18412 -99.42732 27358 ft 436 kts 283°
2026-04-26 16:06 30.19196 -99.46118 27710 ft 434 kts 283°
2026-04-26 16:06 30.19976 -99.49486 28058 ft 433 kts 283°
2026-04-26 16:06 30.20755 -99.52857 28398 ft 432 kts 283°
2026-04-26 16:07 30.21528 -99.56207 28752 ft 431 kts 283°
2026-04-26 16:07 30.22299 -99.59551 29150 ft 429 kts 282°
2026-04-26 16:07 30.23066 -99.62884 29553 ft 428 kts 282°
2026-04-26 16:07 30.23819 -99.66159 29945 ft 426 kts 282°
2026-04-26 16:08 30.24579 -99.69470 30297 ft 424 kts 282°
2026-04-26 16:08 30.25087 -99.71686 30570 ft 422 kts 282°
2026-04-26 16:08 30.26077 -99.76009 31130 ft 417 kts 282°
2026-04-26 16:08 30.26817 -99.79240 31554 ft 414 kts 282°
2026-04-26 16:09 30.27550 -99.82451 31954 ft 412 kts 282°
2026-04-26 16:09 30.28279 -99.85646 32357 ft 409 kts 282°
2026-04-26 16:09 30.29002 -99.88820 32769 ft 406 kts 282°
2026-04-26 16:09 30.29718 -99.91965 33170 ft 403 kts 282°
2026-04-26 16:10 30.30429 -99.95094 33567 ft 400 kts 282°
2026-04-26 16:10 30.31135 -99.98206 33930 ft 398 kts 282°
2026-04-26 16:10 30.31836 -100.01295 34251 ft 396 kts 282°
2026-04-26 16:10 30.32531 -100.04367 34539 ft 394 kts 282°
2026-04-26 16:11 30.33224 -100.07432 34807 ft 393 kts 282°
2026-04-26 16:11 30.33914 -100.10485 35097 ft 391 kts 282°
2026-04-26 16:11 30.34599 -100.13521 35398 ft 389 kts 282°
2026-04-26 16:11 30.35282 -100.16550 35675 ft 387 kts 282°
2026-04-26 16:12 30.35961 -100.19565 35945 ft 386 kts 282°
2026-04-26 16:12 30.36628 -100.22531 36226 ft 384 kts 282°
2026-04-26 16:12 30.37970 -100.28509 36798 ft 381 kts 282°
2026-04-26 16:13 30.38635 -100.31473 37065 ft 380 kts 282°
2026-04-26 16:13 30.39074 -100.33433 37251 ft 379 kts 282°
2026-04-26 16:13 30.39735 -100.36390 37534 ft 377 kts 282°
2026-04-26 16:13 30.40390 -100.39323 37805 ft 375 kts 282°
2026-04-26 16:14 30.41042 -100.42242 38066 ft 374 kts 282°
2026-04-26 16:14 30.41903 -100.46104 38407 ft 372 kts 282°
2026-04-26 16:14 30.42983 -100.50956 38763 ft 371 kts 282°
2026-04-26 16:15 30.43625 -100.53850 38912 ft 371 kts 282°
2026-04-26 16:15 30.44268 -100.56747 39031 ft 372 kts 282°
2026-04-26 16:15 30.44912 -100.59655 39116 ft 373 kts 282°
2026-04-26 16:16 30.46204 -100.65494 39342 ft 374 kts 282°
2026-04-26 16:16 30.46841 -100.68373 39491 ft 373 kts 282°
2026-04-26 16:16 30.48129 -100.74214 39689 ft 374 kts 282°
2026-04-26 16:17 30.48771 -100.77130 39808 ft 373 kts 282°
2026-04-26 16:17 30.49410 -100.80032 39895 ft 371 kts 282°
2026-04-26 16:17 30.50688 -100.85852 39898 ft 374 kts 282°
2026-04-26 16:18 30.52616 -100.94660 39868 ft 377 kts 282°
2026-04-26 16:19 30.54547 -101.03512 39874 ft 378 kts 282°
2026-04-26 16:20 30.56474 -101.12373 39904 ft 377 kts 282°
2026-04-26 16:20 30.58385 -101.21192 39917 ft 377 kts 282°
2026-04-26 16:21 30.59656 -101.27077 39918 ft 376 kts 282°
2026-04-26 16:21 30.60924 -101.32958 39910 ft 375 kts 282°
2026-04-26 16:22 30.62189 -101.38842 39895 ft 375 kts 282°
2026-04-26 16:22 30.63450 -101.44723 39870 ft 375 kts 281°
2026-04-26 16:23 30.64704 -101.50584 39854 ft 374 kts 281°
2026-04-26 16:23 30.65956 -101.56447 39826 ft 374 kts 281°
2026-04-26 16:24 30.67197 -101.62272 39799 ft 374 kts 281°
2026-04-26 16:24 30.68441 -101.68130 39803 ft 373 kts 281°
2026-04-26 16:25 30.69683 -101.73986 39802 ft 373 kts 281°
2026-04-26 16:25 30.70919 -101.79832 39799 ft 373 kts 281°
2026-04-26 16:26 30.72148 -101.85657 39793 ft 372 kts 281°
2026-04-26 16:26 30.73383 -101.91522 39799 ft 372 kts 281°
2026-04-26 16:27 30.74610 -101.97368 39796 ft 372 kts 281°
2026-04-26 16:27 30.75834 -102.03213 39798 ft 372 kts 281°
2026-04-26 16:28 30.77057 -102.09064 39790 ft 372 kts 281°
2026-04-26 16:28 30.78269 -102.14878 39791 ft 372 kts 281°
2026-04-26 16:29 30.79488 -102.20739 39794 ft 372 kts 281°
2026-04-26 16:29 30.80703 -102.26592 39792 ft 372 kts 281°
2026-04-26 16:30 30.81914 -102.32447 39794 ft 372 kts 281°
2026-04-26 16:30 30.83124 -102.38304 39797 ft 372 kts 281°
2026-04-26 16:31 30.84329 -102.44157 39796 ft 372 kts 281°
2026-04-26 16:31 30.85533 -102.50017 39790 ft 372 kts 281°
2026-04-26 16:32 30.86530 -102.54883 39812 ft 372 kts 281°
2026-04-26 16:32 30.87930 -102.61728 39850 ft 372 kts 281°
2026-04-26 16:33 30.89118 -102.67552 39876 ft 371 kts 281°
2026-04-26 16:33 30.90309 -102.73404 39909 ft 371 kts 281°
2026-04-26 16:34 30.91496 -102.79251 39942 ft 371 kts 281°
2026-04-26 16:34 30.92680 -102.85100 39944 ft 370 kts 281°
2026-04-26 16:35 30.93858 -102.90933 39946 ft 370 kts 281°
2026-04-26 16:35 30.95034 -102.96767 39945 ft 370 kts 281°
2026-04-26 16:36 30.96507 -103.02517 39936 ft 371 kts 284°
2026-04-26 16:36 30.98105 -103.08229 39903 ft 371 kts 284°
2026-04-26 16:37 30.99699 -103.13945 39876 ft 371 kts 284°
2026-04-26 16:37 31.01268 -103.19624 39841 ft 370 kts 284°
2026-04-26 16:38 31.02841 -103.25347 39807 ft 370 kts 284°
2026-04-26 16:38 31.04409 -103.31073 39783 ft 370 kts 284°
2026-04-26 16:39 31.05972 -103.36791 39792 ft 370 kts 284°
2026-04-26 16:39 31.07531 -103.42506 39799 ft 369 kts 284°
2026-04-26 16:40 31.09074 -103.48175 39812 ft 369 kts 284°
2026-04-26 16:40 31.10626 -103.53892 39820 ft 369 kts 284°
2026-04-26 16:41 31.12176 -103.59606 39827 ft 369 kts 284°
2026-04-26 16:41 31.13723 -103.65323 39821 ft 369 kts 284°
2026-04-26 16:42 31.15265 -103.71033 39813 ft 369 kts 284°
2026-04-26 16:42 31.16746 -103.76765 39804 ft 368 kts 284°
2026-04-26 16:43 31.18306 -103.82474 39796 ft 369 kts 284°
2026-04-26 16:43 31.19855 -103.88155 39782 ft 369 kts 284°
2026-04-26 16:44 31.21399 -103.93876 39784 ft 369 kts 284°
2026-04-26 16:44 31.22938 -103.99616 39791 ft 369 kts 284°